Rbgn^[z[y[W
メイン
   新天体発見情報
     Comet P/2008 WZ96 = 2021 W1 (LINEAR)
投稿するにはまず登録を

スレッド表示 | 新しいものから 前のトピック | 次のトピック | 下へ
投稿者 スレッド
佐藤裕久
投稿日時: 2021-12-20 14:10
モデレータ
登録日: 2005-6-12
居住地: 日本
投稿: 2286
オンライン
Comet P/2008 WZ96 = 2021 W1 (LINEAR)

E. Schwab (Egelsbach, ドイツ)の通報によると、11月30日と12月1日UT、Calar Altoの共同
プログラムによる0.8-m f/3 Schmidt望遠鏡で得た二夜の60秒露出12枚2組のCCD画像からP/2008 
WZ96 (IAUC 9015参照)を検出した。この彗星の頭部のFWHM(半値全幅)は、2".7のシーイングで、
3".3で、尾はなかった。
NK 3673とICQ's 2020 & 2021 Comet Handbooksの中野主一氏の予報に対し、Delta(T)は、+0.026 
dayであった。
MPC 66204の予報に対するDelta(T)は、-0.72 dayであった。
彗星年表2020の佐藤裕久の参考軌道要素の修正値は、Delta(T) = +0.30 dayであった。
2015年の回帰は見逃されていた。

検出位置は次のとおり、

     2021 UT             R.A. (2000) Decl.       Mag.   Observer
     Nov. 30.02694    6 14 43.64   +28 56 31.8          Schwab
          30.03921    6 14 43.11   +28 56 37.0   19.8     "
          30.05149    6 14 42.61   +28 56 41.7            "
     Dec.  1.19362    6 13 54.45   +29 03 36.7   19.6     "
           1.20590    6 13 53.89   +29 03 40.6   19.6     "
           1.21818    6 13 53.34   +29 03 45.1   19.5     "

MPCの連結軌道要素と位置推算表は次のとおり、

Orbital elements:
    P/2008 WZ96 (LINEAR)                                                        
Epoch 2009 Jan. 9.0 TT = JDT 2454840.5                                          
T 2009 Jan. 23.90727 TT                                 Veres                   
q   1.6462761            (2000.0)            P               Q                  
n   0.16022528     Peri.  337.61927     +0.79906053     -0.59219512             
a   3.3572372      Node    59.11032     +0.56835861     +0.68756665             
e   0.5096337      Incl.    6.95794     +0.19613965     +0.42018691             
P   6.15                                                                        
From 148 observations 2008 Nov. 30-2021 Dec. 2, mean residual 0".7.             
                                                                                
    P/2008 WZ96 (LINEAR)                                                        
Epoch 2015 Apr. 8.0 TT = JDT 2457120.5                                          
T 2015 Mar. 25.20288 TT                                 Veres                   
q   1.6469763            (2000.0)            P               Q                  
n   0.16013965     Peri.  337.81801     +0.79763798     -0.59412015             
a   3.3584338      Node    59.04971     +0.56996753     +0.68616494             
e   0.5095999      Incl.    6.95838     +0.19725785     +0.41976056             
P   6.15                                                                        
From 148 observations 2008 Nov. 30-2021 Dec. 2, mean residual 0".7.             
                                                                                
    P/2008 WZ96 (LINEAR)                                                        
Epoch 2021 Aug. 14.0 TT = JDT 2459440.5                                         
T 2021 Aug. 26.06369 TT                                 Veres                   
q   1.8501199            (2000.0)            P               Q                  
n   0.15137905     Peri.  341.97728     +0.78175048     -0.61499551             
a   3.4867879      Node    56.41888     +0.58629531     +0.66849846             
e   0.4693913      Incl.    7.11456     +0.21242410     +0.41819890             
P   6.51                                                                        
From 148 observations 2008 Nov. 30-2021 Dec. 2, mean residual 0".7.             
                                                                                
    P/2008 WZ96 (LINEAR)                                                        
Epoch 2028 Mar. 10.0 TT = JDT 2461840.5                                         
T 2028 Mar. 6.11877 TT                                  Veres                   
q   1.8566550            (2000.0)            P               Q                  
n   0.15099431     Peri.  342.11462     +0.78066513     -0.61639234             
a   3.4927084      Node    56.38324     +0.58743784     +0.66748264             
e   0.4684197      Incl.    7.10935     +0.21325745     +0.41776478             
P   6.53                                                                        
From 148 observations 2008 Nov. 30-2021 Dec. 2, mean residual 0".7.             
                                                                                
    P/2008 WZ96 (LINEAR)                                                        
Epoch 2022 Jan. 21.0 TT = JDT 2459600.5                                         
T 2021 Aug. 26.09297 TT                                 Veres                   
q   1.8501956            (2000.0)            P               Q                  
n   0.15134534     Peri.  341.99182     +0.78160169     -0.61518518             
a   3.4873056      Node    56.41822     +0.58645618     +0.66835759             
e   0.4694484      Incl.    7.11437     +0.21252751     +0.41814510             
P   6.51                                                                        
From 148 observations 2008 Nov. 30-2021 Dec. 2, mean residual 0".7.             
                                                                                
Ephemeris:
Date    TT    R. A. (2000) Decl.     Delta      r    Elong.  Phase   m1
2021 11 03    06 19 14.8 +26 06 51   1.1847  1.9425   126.1    24.4  20.5
...
2021 11 18    06 20 20.7 +27 40 15   1.1172  1.9844   140.8    18.3  20.4
...
2021 11 26    06 17 11.5 +28 31 29   1.0958  2.0094   149.5    14.5  20.4
...
2021 12 02    06 13 19.7 +29 08 28   1.0880  2.0292   156.1    11.3  20.5
2021 12 03    06 12 34.7 +29 14 24   1.0874  2.0326   157.2    10.8  20.5
2021 12 04    06 11 48.0 +29 20 14   1.0871  2.0361   158.4    10.3  20.5
...
2021 12 10    06 06 39.6 +29 53 09   1.0900  2.0570   165.0     7.1  20.5
...
2021 12 18    05 59 02.9 +30 29 52   1.1074  2.0863   172.0     3.8  20.6
...
2022 01 02    05 45 27.4 +31 12 24   1.1830  2.1446   163.7     7.4  20.9

(MPEC 2021-X81、CBET 5078、oaa-comet 2562)

スレッド表示 | 新しいものから 前のトピック | 次のトピック | トップ

投稿するにはまず登録を
 
© 1999 Tsutomu Seki.